Regional Weather Roundup
Issued by NWS Northern Indiana

Home | Current Version | Previous Version | Text Only | Print | Product List | Glossary On
Versions: 1 2 3 4 5 6 7 8 9 10 11 12 13 14 15 16 17 18 19 20 21 22 23 24 25 26 27 28 29 30 31 32 33 34 35 36 37 38 39 40 41 42 43 44 45 46 47 48 49 50
000
ASUS43 KIWX 241300
RWRIWX

KIWX WEATHER ROUNDUP
NATIONAL WEATHER SERVICE NORTHERN INDIANA
900 AM EDT THU APR 24 2014

NOTE: "FAIR" INDICATES FEW OR NO CLOUDS BELOW 12,000 FEET WITH NO
SIGNIFICANT WEATHER AND/OR OBSTRUCTIONS TO VISIBILITY.

* THESE STATIONS ARE NOT UNDER NWS QUALITY CONTROL. THEY ALSO MAY NOT
  REPORT WEATHER SUCH AS PRECIPITATION OR FOG.

INZ001>027-241400-
NORTHERN INDIANA

CITY           SKY/WX    TMP DP  RH WIND       PRES   REMARKS
GARY*          CLOUDY    50  37  62 SE14      30.02F
VALPARAISO     CLOUDY    48  35  60 SE14      30.04F
SOUTH BEND     CLOUDY    52  34  50 SE15      30.08F
ELKHART*       PTSUNNY   50  32  50 SE10      30.09F
GOSHEN         CLOUDY    50  34  54 SE14      30.10F
ANGOLA*        MOSUNNY   45  32  61 SE8       30.13F
FORT WAYNE     CLOUDY    48  30  49 SE12      30.13S
PERU/GRISSOM   CLOUDY    50  36  57 SE18      30.07F

$$
INZ028>050-241400-
CENTRAL INDIANA

CITY           SKY/WX    TMP DP  RH WIND       PRES   REMARKS
LAFAYETTE      CLOUDY    50  36  58 SE14G22   30.05R
KOKOMO*        PTSUNNY   50  34  53 SE16      30.08F
MUNCIE*        PTSUNNY   49  28  44 SE12      30.11S
INDIANAPOLIS   CLOUDY    50  34  54 E15       30.07R

$$
MIZ043>046-050>051-056>058-064>065-071>073-077>080-241400-
SOUTHWEST LOWER MICHIGAN

CITY           SKY/WX    TMP DP  RH WIND       PRES   REMARKS
BATTLE CREEK   CLOUDY    47  29  49 SE8       30.12S
BENTON HARBOR  PTSUNNY   50  36  58 SE10      30.06F
COLDWATER*     CLOUDY    46  29  52 SE9       30.13S
HILLSDALE*     PTSUNNY   46  26  45 SE12G17   30.13S
HOLLAND        CLOUDY    49  32  52 SE7       30.10S
GRAND RAPIDS   CLOUDY    48  33  56 E10       30.11F
KALAMAZOO      CLOUDY    48  32  53 SE8       30.11F
STURGIS*       CLOUDY    46  32  57 SE10G16   30.10F
THREE RIVERS*  CLOUDY    49  32  52 SE9       30.11F

$$
OHZ001>008-015>018-024>025-241400-
NORTHWEST OHIO

CITY           SKY/WX    TMP DP  RH WIND       PRES   REMARKS
DEFIANCE       PTSUNNY   48  30  49 E10       30.16R
FINDLAY        CLOUDY    45  22  40 SE9       30.15S
TOLEDO EXPRESS CLOUDY    45  23  42 E10       30.16S
TOLEDO METCALF CLOUDY    45  23  42 E10       30.18S
LIMA           CLOUDY    48  25  40 SE14      30.14S

$$
&&



USA.gov is the U.S. government's official web portal to all federal, state and local government web resources and services.